Location: ????????
(60.4333°N, 46.4710°E)
Time: 04:08:16
(UTC+00:00)

Cosmos 2263 - Pass Details

Date: 25 November 2020
Orbit: 833 x 863 km, 70.9° (Epoch: 19 January)

Event Time Altitude Azimuth Distance (km) Brightness Sun altitude
Rises 15:02:07 0° 318° (NW) 3,406 7.9 -20.6°
Reaches altitude 10° 15:04:35 10° 319° (NW) 2,465 7.1 -20.9°
Maximum altitude 15:10:15 82° 48° (NE) 852 4.1 -21.6°
Enters shadow 15:12:45 35° 132° (SE) 1,326 4.9 -21.9°
